Regional Weather Roundup
Issued by NWS

Home | Current Version | Previous Version | Text Only | Print | Product List | Glossary Off
Versions: 1 2 3 4 5 6 7 8 9 10 11 12 13 14 15 16 17 18 19 20 21 22 23 24 25 26 27 28 29 30 31 32 33 34 35 36 37 38 39 40 41 42 43 44 45 46 47 48 49 50

000
ASUS43 KOAX 310002
RWRNE

WEATHER ROUNDUP FOR NEBRASKA
NATIONAL WEATHER SERVICE OMAHA NE
700 PM CDT THU MAR 30 2017

NOTES: SATELLITE DATA IS BEING USED TO AUGMENT CLOUD COVER ABOVE
       12000 FEET.
       "FAIR" INDICATES FEW OR NO CLOUDS BELOW 12,000 FEET WITH NO
       SIGNIFICANT WEATHER AND/OR OBSTRUCTIONS TO VISIBILITY.

  * THESE STATIONS DO NOT REPORT WEATHER SUCH AS RAIN...SNOW OR FOG.

NEZ001>004-019>022-054>056-310100-
NEBRASKA PANHANDLE

CITY           SKY/WX    TMP DP  RH WIND       PRES   REMARKS
SCOTTSBLUFF    CLOUDY    57  40  52 E9        29.68R
6HR MIN TEMP:  48; 6HR MAX TEMP:  60;

ALLIANCE       SUNNY     56  33  42 E8        29.69R
6HR MIN TEMP:  48; 6HR MAX TEMP:  57;

CHADRON        CLOUDY    57  38  48 E8        29.69R
6HR MIN TEMP:  53; 6HR MAX TEMP:  61;

KIMBALL        CLOUDY    54  46  75 NE8       29.71R
SIDNEY         CLOUDY    55  39  54 SE9       29.70R
6HR MIN TEMP:  53; 6HR MAX TEMP:  59;

$$

NEZ057>060-069>072-079>082-310100-
SOUTHWEST NEBRASKA

CITY           SKY/WX    TMP DP  RH WIND       PRES   REMARKS
NORTH PLATTE   SUNNY     49  36  61 E12       29.75R
6HR MIN TEMP:  43; 6HR MAX TEMP:  53;

IMPERIAL       SUNNY     57  36  45 SE10      29.70R
6HR MIN TEMP:  48; 6HR MAX TEMP:  59;

LEXINGTON      CLOUDY    44  37  75 N6        29.78R
MCCOOK         SUNNY     49  39  68 E13       29.73F
6HR MIN TEMP:  43; 6HR MAX TEMP:  53;

OGALLALA       SUNNY     55  37  51 E10       29.72R
$$

NEZ005>010-023>029-035>040-094-310100-
NORTH CENTRAL NEBRASKA

CITY           SKY/WX    TMP DP  RH WIND       PRES   REMARKS
VALENTINE      CLOUDY    44  33  65 E6        29.78R
6HR MIN TEMP:  38; 6HR MAX TEMP:  45;

AINSWORTH      CLOUDY    44  36  73 NE7       29.78R
BROKEN BOW     CLOUDY    44  35  70 N9        29.77R
6HR MIN TEMP:  40; 6HR MAX TEMP:  44;

O`NEILL        CLOUDY    44  37  75 NE9       29.80R
ORD            CLOUDY    42  35  76 N9        29.77R
6HR MIN TEMP:  42; 6HR MAX TEMP:  45;

THEDFORD       PTSUNNY   46  36  69 E10       29.78R
$$

NEZ041-046>049-061>064-073>077-083>087-310100-
SOUTH CENTRAL NEBRASKA

CITY           SKY/WX    TMP DP  RH WIND       PRES   REMARKS
GRAND ISLAND   CLOUDY    43  38  82 NE10      29.78R
6HR MIN TEMP:  41; 6HR MAX TEMP:  44;

AURORA         CLOUDY    43  40  90 N12       29.78R
HASTINGS       CLOUDY    44  38  79 N9        29.78R
6HR MIN TEMP:  42; 6HR MAX TEMP:  45;

HEBRON         CLOUDY    43  39  86 N7        29.78R
HOLDREGE       CLOUDY    45  37  74 N6        29.77R
KEARNEY *      CLOUDY    45  36  70 NE12      29.78R
YORK           CLOUDY    43  39  87 N13G21    29.78R
$$

NEZ011>018-030>034-042>045-310100-
NORTHEAST NEBRASKA

CITY           SKY/WX    TMP DP  RH WIND       PRES   REMARKS
NORFOLK        CLOUDY    42  36  79 N12       29.78R
6HR MIN TEMP:  40; 6HR MAX TEMP:  44;

ALBION         CLOUDY    43  37  79 N8        29.79R
BLAIR          CLOUDY    42  39  89 N14       29.75R
FREMONT        CLOUDY    43  39  86 N8G16     29.77R
TEKAMAH        CLOUDY    43  39  86 N16       29.77R
6HR MIN TEMP:  42; 6HR MAX TEMP:  45;

WAYNE          CLOUDY    43  40  91 N13       29.78R
$$

NEZ050>053-065>068-078-088>093-310100-
SOUTHEAST NEBRASKA

CITY           SKY/WX    TMP DP  RH WIND       PRES   REMARKS
LINCOLN        CLOUDY    44  40  85 N15       29.77R
6HR MIN TEMP:  42; 6HR MAX TEMP:  45;

OMAHA EPPLEY   CLOUDY    44  38  79 N15       29.75R
6HR MIN TEMP:  43; 6HR MAX TEMP:  45;

BEATRICE       CLOUDY    44  42  89 N14       29.76R
FALLS CITY     CLOUDY    44  41  89 N9        29.72R
6HR MIN TEMP:  44; 6HR MAX TEMP:  45; 6HR PCP: TRACE;

NEBRASKA CITY  CLOUDY    43  42  97 N12       29.74R
PLATTSMOUTH    CLOUDY    43  38  82 N7        29.75R
$$

NEZ044-045-051>053-067-310100-
OMAHA AREA

CITY           SKY/WX    TMP DP  RH WIND       PRES   REMARKS
OMAHA EPPLEY   CLOUDY    44  38  79 N15       29.75R
6HR MIN TEMP:  43; 6HR MAX TEMP:  45;

BLAIR          CLOUDY    42  39  89 N14       29.75R
FREMONT        CLOUDY    43  39  86 N8G16     29.77R
MILLARD        CLOUDY    46  41  83 N8        29.76R
OFFUTT AFB     CLOUDY    44  39  82 N9        29.75R
PLATTSMOUTH    CLOUDY    43  38  82 N7        29.75R
WAHOO          CLOUDY    43  40  88 N10       29.77R
$$




USA.gov is the U.S. government's official web portal to all federal, state and local government web resources and services.